This is the latest recevied weather packets stored in our database for station/object SP9MUF-14. If no packets are shown the sender has not sent any weather packets the latest 10 day(s).
| Time | Temp. | Humidity | Pressure | Rain* | Wind** | Luminosity | Snow |
|---|---|---|---|---|---|---|---|
| 1778159448 | 18.89° C | 50% | 1010.8 hPa | 0 mm | - | 167 W/m² | - |
| 1778159143 | 20° C | 53% | 1010.7 hPa | 0 mm | - | 220 W/m² | - |
| 1778158840 | 18.89° C | 58% | 1010.7 hPa | 0 mm | - | 284 W/m² | - |
| 1778158535 | 18.89° C | 58% | 1010.9 hPa | 0 mm | - | 364 W/m² | - |
| 1778158232 | 18.89° C | 61% | 1011.1 hPa | 0 mm | - | 278 W/m² | - |
| 1778157927 | 17.78° C | 60% | 1011.1 hPa | 0 mm | - | 160 W/m² | - |
| 1778157623 | 18.89° C | 60% | 1011 hPa | 0 mm | - | 140 W/m² | - |
| 1778157320 | 17.78° C | 59% | 1011 hPa | 0 mm | - | 161 W/m² | - |
| 1778156408 | 18.89° C | 61% | 1010.9 hPa | 0 mm | - | 214 W/m² | - |
| 1778155801 | 18.89° C | 59% | 1010.9 hPa | 0 mm | - | 114 W/m² | - |
| 1778155496 | 20° C | 56% | 1010.8 hPa | 0 mm | - | 75 W/m² | - |
| 1778155192 | 20° C | 56% | 1010.7 hPa | 0 mm | - | 69 W/m² | - |
| 1778154888 | 20° C | 55% | 1010.7 hPa | 0 mm | - | 76 W/m² | - |
| 1778154280 | 20° C | 55% | 1010.6 hPa | 0 mm | - | 155 W/m² | - |
| 1778153976 | 20° C | 55% | 1010.5 hPa | 0 mm | - | 199 W/m² | - |
| 1778153672 | 20° C | 55% | 1010.5 hPa | 0 mm | - | 223 W/m² | - |
| 1778153368 | 20° C | 56% | 1010.5 hPa | 0 mm | - | 256 W/m² | - |
| 1778153065 | 20° C | 57% | 1010.4 hPa | 0 mm | - | 258 W/m² | - |
| 1778152760 | 20° C | 56% | 1010.5 hPa | 0 mm | - | 251 W/m² | - |
| 1778152456 | 20° C | 56% | 1010.5 hPa | 0 mm | - | 250 W/m² | - |
| 1778151848 | 20° C | 57% | 1010.4 hPa | 0 mm | - | 254 W/m² | - |
| 1778151545 | 20° C | 56% | 1010.4 hPa | 0 mm | - | 268 W/m² | - |
| 1778151240 | 20° C | 57% | 1010.5 hPa | 0 mm | - | 307 W/m² | - |
| 1778150937 | 20° C | 56% | 1010.4 hPa | 0 mm | - | 306 W/m² | - |
| 1778150632 | 20° C | 57% | 1010.4 hPa | 0 mm | - | 355 W/m² | - |
* Rain latest hour (hover to see other rain measurements)
** Current wind speed in m/s (hover to see current wind gust speed)